www.pogodaiklimat.ru

Погода и климат >> Архив погоды >> Австралия >> Wyndham Aero


ПОГОДА в Wyndham Aero

  • Прогноз погоды в Wyndham Aero
  • Монитор погоды в Wyndham Aero
  • Климат города

АРХИВ ПОГОДЫ в Wyndham Aero

Время (UTC), дата Ветер
(напр.,м/с)
 
Видим.   Явления Облачность Т
(С)
Тd
(С)
f
(%)
Тe
(С)
Тes
(С)
Комфортность P
(гПа)
Po
(гПа)
Тmin
(С)
Tmax
(С)
R
(мм)
R24
(мм)
S
(см)
05 22.04 СВ 3 н/о н/о +36.7 +18.7 35 +41 +41 опасность
перегрева
1009.2 1008.7
04 22.04 СВ 3 н/о н/о +36.5 +18.6 35 +41 +41 опасность
перегрева
1009.9 1009.4
06 22.04 СВ 5 н/о н/о +36.9 +18.0 33 +41 +41 опасность
перегрева
1008.4 1007.9
07 22.04 В 4 н/о н/о +37.6 +18.1 32 +41 +41 опасность
перегрева
1007.9 1007.4
08 22.04 В 5 н/о н/о +36.7 +17.3 32 +40 +40 очень
душно
1008.2 1007.7
09 22.04 СВ 3 н/о н/о +34.5 +17.7 37 +38 +38 очень
душно
1008.9 1008.4
11 22.04 штиль 0 н/о н/о +32.0 +20.6 51 +39 +39 очень
душно
1010.6 1010.1
10 22.04 СВ 3 н/о н/о +32.8 +20.0 47 +39 +39 очень
душно
1009.5 1009.0
12 22.04 З 1 н/о н/о +31.0 +20.9 55 +38 +38 очень
душно
1011.4 1010.9
13 22.04 штиль 0 н/о н/о +29.1 +20.5 60 +36 +36 очень
душно
1011.5 1011.0 +38.0
14 22.04 В 3 н/о н/о +28.2 +21.7 68 +36 +36 очень
душно
1011.2 1010.7
15 22.04 С 1 н/о н/о +27.7 +23.1 76 +37 +37 очень
душно
1011.1 1010.6
17 22.04 штиль 0 н/о н/о +26.7 +23.0 80 +36 +36 очень
душно
1010.3 1009.8
16 22.04 В 2 н/о н/о +27.2 +23.0 78 +36 +36 очень
душно
1010.7 1010.2
18 22.04 штиль 0 н/о н/о +26.2 +22.5 80 +34 +34 очень
душно
1010.0 1009.5
19 22.04 З 2 н/о н/о +26.3 +22.4 79 +34 +34 очень
душно
1009.8 1009.3
20 22.04 З 2 н/о н/о +26.3 +21.5 75 +34 +34 очень
душно
1010.0 1009.5
21 22.04 штиль 0 н/о н/о +24.8 +21.1 80 +31 +31 очень
душно
1010.3 1009.8
23 22.04 штиль 0 н/о н/о +28.9 +23.1 71 +39 +39 очень
душно
1011.4 1010.9
22 22.04 штиль 0 н/о н/о +25.1 +21.8 82 +32 +32 очень
душно
1010.8 1010.3
00 23.04 Ю 2 н/о н/о +31.2 +23.0 62 +41 +41 опасность
перегрева
1012.1 1011.6
01 23.04 Ю 3 н/о н/о +33.1 +21.9 52 +42 +42 опасность
перегрева
1012.6 1012.1 +24.7
02 23.04 ЮВ 4 н/о н/о +34.9 +20.8 44 +42 +42 опасность
перегрева
1012.1 1011.6
03 23.04 СВ 3 н/о н/о +35.7 +18.7 37 +40 +40 очень
душно
1011.3 1010.8
05 23.04 В 4 н/о н/о +36.0 +18.1 35 +40 +40 очень
душно
1009.4 1008.9
04 23.04 СВ 6 н/о н/о +37.1 +19.5 36 +42 +42 опасность
перегрева
1010.1 1009.6
06 23.04 В 5 н/о н/о +37.2 +17.2 31 +40 +40 очень
душно
1008.7 1008.2
07 23.04 СВ 5 н/о н/о +37.0 +17.1 31 +40 +40 очень
душно
1008.5 1008.0
08 23.04 С 6 н/о н/о +35.3 +20.4 42 +42 +42 опасность
перегрева
1009.1 1008.6
09 23.04 С 5 н/о н/о +32.4 +21.9 54 +41 +41 опасность
перегрева
1009.7 1009.2
11 23.04 С 4 н/о н/о +31.1 +18.8 48 +36 +36 очень
душно
1011.0 1010.5
10 23.04 С 4 н/о н/о +31.2 +20.5 53 +38 +38 очень
душно
1010.5 1010.0
12 23.04 З 2 н/о н/о +31.1 +18.5 47 +36 +36 очень
душно
1011.8 1011.3
13 23.04 ЮЗ 3 н/о н/о +29.2 +18.0 51 +34 +34 очень
душно
1011.8 1011.3 +37.9
14 23.04 штиль 0 н/о н/о +27.3 +18.6 59 +32 +32 очень
душно
1012.0 1011.5
15 23.04 штиль 0 н/о н/о +27.0 +19.6 64 +33 +33 очень
душно
1011.9 1011.4
17 23.04 штиль 0 н/о н/о +25.5 +19.9 71 +31 +31 очень
душно
1010.8 1010.3
16 23.04 штиль 0 н/о н/о +26.0 +20.1 70 +32 +32 очень
душно
1011.2 1010.7
18 23.04 штиль 0 н/о н/о +25.2 +21.1 78 +32 +32 очень
душно
1010.5 1010.0
19 23.04 штиль 0 н/о н/о +24.7 +20.8 79 +31 +31 очень
душно
1010.5 1010.0
20 23.04 штиль 0 н/о н/о +24.3 +20.6 80 +30 +30 очень
душно
1010.7 1010.2
21 23.04 штиль 0 н/о н/о +24.4 +20.9 81 +31 +31 очень
душно
1011.2 1010.7
23 23.04 штиль 0 н/о н/о +28.7 +22.0 67 +37 +37 очень
душно
1012.9 1012.4
22 23.04 штиль 0 н/о н/о +24.8 +20.7 78 +31 +31 очень
душно
1012.1 1011.6
00 24.04 ЮЗ 3 н/о н/о +31.2 +21.9 58 +40 +40 очень
душно
1013.0 1012.5
01 24.04 З 4 н/о н/о +33.1 +21.3 50 +41 +41 опасность
перегрева
1013.1 1012.6 +24.2
02 24.04 Ю 3 н/о н/о +34.8 +20.4 43 +41 +41 опасность
перегрева
1012.5 1012.0
03 24.04 ЮВ 3 н/о н/о +35.7 +18.7 37 +40 +40 очень
душно
1011.2 1010.7
05 24.04 В 4 н/о н/о +37.3 +15.2 27 +39 +39 очень
душно
1009.2 1008.7
04 24.04 ЮВ 5 н/о н/о +36.6 +16.7 31 +39 +39 очень
душно
1009.9 1009.4
06 24.04 В 5 н/о н/о +37.5 +16.4 29 +40 +40 очень
душно
1008.5 1008.0
07 24.04 В 5 н/о н/о +37.5 +15.9 28 +39 +39 очень
душно
1008.3 1007.8
08 24.04 В 5 н/о н/о +36.4 +16.0 30 +38 +38 очень
душно
1008.5 1008.0
09 24.04 СВ 4 н/о н/о +34.2 +16.5 35 +37 +37 очень
душно
1009.2 1008.7
11 24.04 С 3 н/о н/о +31.4 +20.0 51 +38 +38 очень
душно
1010.9 1010.4
10 24.04 С 4 н/о н/о +32.5 +19.7 47 +38 +38 очень
душно
1010.1 1009.6
12 24.04 ЮВ 1 н/о н/о +30.7 +19.7 52 +37 +37 очень
душно
1011.8 1011.3
13 24.04 ЮЗ 3 н/о н/о +30.5 +20.4 55 +37 +37 очень
душно
1012.0 1011.5 +38.3
14 24.04 В 1 н/о н/о +28.4 +19.9 60 +35 +35 очень
душно
1011.8 1011.3
15 24.04 В 3 н/о н/о +27.3 +21.3 70 +35 +35 очень
душно
1011.4 1010.9
17 24.04 штиль 0 н/о н/о +26.3 +20.8 72 +33 +33 очень
душно
1010.4 1009.9
16 24.04 штиль 0 н/о н/о +26.9 +21.0 70 +34 +34 очень
душно
1011.2 1010.7
18 24.04 З 2 н/о н/о +25.9 +20.2 71 +32 +32 очень
душно
1010.2 1009.7
19 24.04 штиль 0 н/о н/о +26.0 +21.4 76 +33 +33 очень
душно
1010.3 1009.8
20 24.04 штиль 0 н/о н/о +25.5 +21.8 80 +33 +33 очень
душно
1010.5 1010.0
21 24.04 штиль 0 н/о н/о +25.7 +21.6 78 +33 +33 очень
душно
1010.7 1010.2
23 24.04 штиль 0 н/о н/о +27.7 +22.9 75 +37 +37 очень
душно
1011.8 1011.3
22 24.04 штиль 0 н/о н/о +25.4 +21.7 80 +33 +33 очень
душно
1011.4 1010.9
00 25.04 штиль 0 н/о н/о +29.8 +21.5 61 +38 +38 очень
душно
1012.3 1011.8
01 25.04 Ю 2 н/о н/о +32.2 +21.7 54 +41 +41 опасность
перегрева
1012.4 1011.9 +25.2
02 25.04 Ю 2 н/о н/о +33.3 +20.8 48 +40 +40 очень
душно
1012.1 1011.6
03 25.04 В 2 н/о н/о +33.9 +19.6 43 +40 +40 очень
душно
1011.1 1010.6
05 25.04 В 3 н/о н/о +35.6 +16.8 33 +38 +38 очень
душно
1009.2 1008.7
04 25.04 В 2 н/о н/о +35.3 +18.8 38 +40 +40 очень
душно
1010.1 1009.6
06 25.04 ЮВ 2 н/о н/о +36.8 +16.4 30 +39 +39 очень
душно
1008.4 1007.9
07 25.04 ЮВ 3 н/о н/о +35.9 +16.1 31 +38 +38 очень
душно
1008.1 1007.6
08 25.04 В 3 н/о н/о +35.0 +16.8 34 +38 +38 очень
душно
1008.7 1008.2
09 25.04 В 2 н/о н/о +33.6 +17.7 39 +37 +37 очень
душно
1009.2 1008.7
11 25.04 В 1 н/о н/о +29.2 +18.6 53 +34 +34 очень
душно
1010.9 1010.4
10 25.04 штиль 0 н/о н/о +30.5 +18.2 48 +35 +35 очень
душно
1010.0 1009.5
12 25.04 В 2 н/о н/о +27.4 +18.1 57 +32 +32 очень
душно
1011.6 1011.1
13 25.04 СВ 2 н/о н/о +27.2 +18.5 59 +32 +32 очень
душно
1011.5 1011.0 +37.5
14 25.04 С 2 н/о н/о +27.0 +18.8 61 +32 +32 очень
душно
1011.5 1011.0
15 25.04 С 1 н/о н/о +25.9 +18.6 64 +31 +31 очень
душно
1011.3 1010.8
17 25.04 СЗ 1 н/о н/о +25.3 +18.0 64 +30 +30 душно 1010.7 1010.2
16 25.04 штиль 0 н/о н/о +25.7 +18.4 64 +30 +30 душно 1010.9 1010.4
18 25.04 штиль 0 н/о н/о +24.5 +17.2 64 +28 +28 душно 1010.2 1009.7
19 25.04 З 2 н/о н/о +24.1 +17.6 67 +28 +28 душно 1010.1 1009.6
20 25.04 СЗ 2 н/о н/о +23.0 +17.7 72 +28 +28 душно 1010.2 1009.7
21 25.04 З 2 н/о н/о +23.0 +17.2 70 +28 +28 душно 1010.0 1009.5
23 25.04 ЮЗ 2 н/о н/о +25.7 +18.9 66 +31 +31 очень
душно
1011.7 1011.2
22 25.04 С 2 н/о н/о +23.1 +18.0 73 +29 +29 очень
душно
1010.7 1010.2
00 26.04 ЮЗ 2 н/о н/о +28.9 +18.4 53 +34 +34 очень
душно
1012.0 1011.5
01 26.04 ЮВ 1 н/о н/о +32.8 +17.8 41 +37 +37 очень
душно
1012.1 1011.6 +22.8
02 26.04 В 4 н/о н/о +35.1 +16.4 33 +38 +38 очень
душно
1011.2 1010.7
03 26.04 ЮВ 6 н/о н/о +37.2 +15.6 28 +39 +39 очень
душно
1010.2 1009.7
05 26.04 В 6 н/о н/о +38.2 +15.3 26 +40 +40 очень
душно
1008.6 1008.1
04 26.04 В 5 н/о н/о +36.8 +15.3 28 +38 +38 очень
душно
1009.4 1008.9
06 26.04 В 6 н/о н/о +37.8 +13.8 24 +38 +38 очень
жарко
1007.9 1007.4
07 26.04 В 7 н/о н/о +37.2 +13.9 25 +38 +38 душно 1007.5 1007.0
08 26.04 В 5 н/о н/о +36.9 +14.8 27 +38 +38 очень
душно
1008.1 1007.6
09 26.04 ЮВ 4 н/о н/о +34.0 +16.8 36 +37 +37 очень
душно
1008.7 1008.2
11 26.04 В 2 н/о н/о +30.7 +17.7 46 +35 +35 очень
душно
1010.5 1010.0
10 26.04 В 3 н/о н/о +31.9 +15.4 37 +34 +34 душно 1009.4 1008.9
12 26.04 ЮВ 2 н/о н/о +29.5 +18.0 50 +34 +34 очень
душно
1011.3 1010.8
13 26.04 штиль 0 н/о н/о +28.9 +18.9 55 +34 +34 очень
душно
1011.3 1010.8 +38.7
14 26.04 З 1 н/о н/о +28.2 +19.7 60 +34 +34 очень
душно
1011.2 1010.7
15 26.04 штиль 0 н/о н/о +27.2 +19.8 64 +33 +33 очень
душно
1010.7 1010.2
17 26.04 СВ 1 н/о н/о +27.1 +20.2 66 +33 +33 очень
душно
1010.2 1009.7
16 26.04 штиль 0 н/о н/о +26.0 +19.4 67 +31 +31 очень
душно
1010.5 1010.0
18 26.04 В 3 н/о н/о +27.4 +18.1 57 +32 +32 очень
душно
1010.0 1009.5
19 26.04 В 4 н/о н/о +28.8 +17.7 51 +33 +33 очень
душно
1010.3 1009.8
20 26.04 В 5 н/о н/о +28.8 +17.7 51 +33 +33 очень
душно
1010.5 1010.0
21 26.04 В 5 н/о н/о +27.8 +17.0 52 +32 +32 душно 1011.0 1010.5
23 26.04 В 8 н/о н/о +29.7 +16.8 46 +33 +33 душно 1013.0 1012.5
22 26.04 В 7 н/о н/о +29.0 +16.9 48 +33 +33 очень
душно
1011.8 1011.3
00 27.04 В 9 н/о н/о +30.8 +16.0 41 +34 +34 очень
душно
1013.3 1012.8
01 27.04 ЮВ 9 н/о н/о +31.7 +14.4 35 +33 +33 жарко 1014.0 1013.5 +26.1
02 27.04 В 9 н/о н/о +32.4 +13.6 32 +34 +34 очень
жарко
1013.4 1012.9
03 27.04 ЮВ 7 н/о н/о +33.6 +13.6 30 +35 +35 душно 1012.9 1012.4
05 27.04 В 7 н/о н/о +34.2 +12.5 27 +34 +34 очень
жарко
1011.1 1010.6
04 27.04 В 7 н/о н/о +33.9 +12.3 27 +34 +34 очень
жарко
1011.8 1011.3
06 27.04 В 7 н/о н/о +33.6 +12.6 28 +34 +34 очень
жарко
1010.4 1009.9
07 27.04 В 6 н/о н/о +33.4 +12.4 28 +34 +34 очень
жарко
1010.0 1009.5
08 27.04 В 5 н/о н/о +32.6 +13.3 31 +34 +34 очень
жарко
1010.0 1009.5
09 27.04 В 4 н/о н/о +30.5 +13.3 35 +32 +32 жарко 1010.7 1010.2
11 27.04 ЮВ 3 н/о н/о +26.8 +14.2 46 +29 +29 жарко 1012.4 1011.9
10 27.04 В 3 н/о н/о +28.8 +12.7 37 +30 +30 жарко 1011.5 1011.0
12 27.04 ЮВ 3 н/о н/о +26.0 +14.8 50 +29 +29 душно 1013.1 1012.6
13 27.04 В 3 н/о н/о +25.2 +15.8 56 +28 +28 жарко 1013.0 1012.5 +35.1
14 27.04 В 4 н/о н/о +26.8 +13.2 43 +29 +29 жарко 1012.7 1012.2
15 27.04 В 5 н/о н/о +27.0 +11.5 38 +28 +28 жарко 1012.6 1012.1
17 27.04 В 5 н/о н/о +27.1 +9.5 33 +27 +27 жарко 1012.4 1011.9
16 27.04 В 5 н/о н/о +26.8 +11.7 39 +28 +28 жарко 1012.5 1012.0
18 27.04 ЮВ 3 н/о н/о +24.4 +11.4 44 +26 +26 жарко 1012.3 1011.8
19 27.04 В 4 н/о н/о +25.4 +8.8 35 +26 +26 жарко 1012.4 1011.9
20 27.04 ЮВ 4 н/о н/о +24.0 +12.0 47 +26 +26 жарко 1012.6 1012.1
21 27.04 В 4 н/о н/о +25.5 +8.9 35 +26 +26 жарко 1013.1 1012.6
23 27.04 В 6 н/о н/о +26.5 +7.5 30 +26 +26 жарко 1014.9 1014.4
22 27.04 В 4 н/о н/о +25.9 +8.4 33 +26 +26 жарко 1014.1 1013.6
00 28.04 В 7 н/о н/о +26.6 +5.0 25 +26 +26 жарко 1015.5 1015.0
01 28.04 В 7 н/о н/о +27.5 +4.5 23 +26 +26 жарко 1015.8 1015.3 +23.4
02 28.04 В 8 н/о н/о +26.8 +4.6 24 +26 +26 жарко 1015.7 1015.2
03 28.04 ЮВ 7 н/о н/о +28.6 +4.8 22 +27 +27 жарко 1014.6 1014.1
05 28.04 ЮВ 6 н/о н/о +30.1 +4.7 20 +28 +28 жарко 1012.6 1012.1
04 28.04 ЮВ 6 н/о н/о +29.9 +5.9 22 +28 +28 жарко 1013.5 1013.0
06 28.04 ЮВ 5 н/о н/о +30.4 +5.6 21 +29 +29 жарко 1012.3 1011.8
07 28.04 В 5 н/о н/о +30.0 +6.0 22 +29 +29 жарко 1012.4 1011.9
08 28.04 ЮВ 5 н/о н/о +28.8 +6.8 25 +28 +28 жарко 1012.9 1012.4
09 28.04 ЮВ 4 н/о н/о +27.4 +7.8 29 +27 +27 жарко 1013.6 1013.1
11 28.04 В 3 н/о н/о +25.1 +9.8 38 +26 +26 жарко 1014.5 1014.0
10 28.04 ЮВ 4 н/о н/о +26.6 +8.1 31 +27 +27 жарко 1013.9 1013.4
12 28.04 В 2 н/о н/о +25.0 +8.5 35 +25 +25 комфорт 1014.8 1014.3
13 28.04 В 3 н/о н/о +24.7 +9.0 37 +25 +25 комфорт 1014.7 1014.2 +31.8
14 28.04 штиль 0 н/о н/о +24.9 +9.2 37 +26 +26 жарко 1014.4 1013.9
15 28.04 ЮВ 2 н/о н/о +23.8 +9.0 39 +25 +25 комфорт 1013.9 1013.4
17 28.04 ЮВ 4 н/о н/о +23.2 +10.3 44 +25 +25 комфорт 1012.6 1012.1
16 28.04 ЮВ 3 н/о н/о +22.8 +10.3 45 +25 +25 комфорт 1013.4 1012.9
18 28.04 В 5 н/о н/о +23.9 +7.5 35 +24 +24 комфорт 1012.0 1011.5
19 28.04 В 3 н/о н/о +23.9 +4.3 28 +24 +24 комфорт 1012.3 1011.8
20 28.04 ЮВ 3 н/о н/о +21.7 +7.2 39 +23 +23 комфорт 1012.7 1012.2
21 28.04 ЮВ 3 н/о н/о +21.4 +9.0 45 +23 +23 комфорт 1013.4 1012.9
23 28.04 В 7 н/о н/о +26.2 +2.8 22 +25 +25 комфорт 1014.6 1014.1
22 28.04 В 4 н/о н/о +24.4 +3.7 26 +24 +24 комфорт 1013.9 1013.4
00 29.04 В 6 н/о н/о +27.7 +2.0 19 +26 +26 жарко 1015.0 1014.5
01 29.04 В 8 н/о н/о +28.8 +2.1 18 +27 +27 жарко 1014.9 1014.4 +21.2
02 29.04 В 8 н/о н/о +29.1 +2.4 18 +27 +27 жарко 1014.2 1013.7
03 29.04 В 6 н/о н/о +30.0 +2.3 17 +28 +28 жарко 1013.5 1013.0
04 29.04 В 6 н/о н/о +31.1 +3.2 17 +29 +29 жарко 1012.5 1012.0

 

Местоположение метеостанции Wyndham Aero (Западная Австралия, Австралия): широта -15.50 долгота 128.15 высота над уровнем моря 4 м.

В архиве по умолчанию представлена погода в Wyndham Aero за последнюю неделю. Архивные данные за месяц целиком и за предыдущие месяцы, начиная с января 2011 года, Вы можете получить, выбрав интересующий диапазон дат из раскрывающегося списка и нажав кнопку "Ввод!".

Внимание! Время в таблицах - всемирное. Для получения местного времени необходимо прибавить поправку, которая в Wyndham Aero равна 8 ч.

Смотрите также архив погоды в соседних городах и на ближайших метеорологических станциях:

Погода в Kununurra (Западная Австралия, Австралия) (68 км)
Погода в Argyle Aero (Западная Австралия, Австралия) (130 км)
Погода в Port Keats Aero (Северная территория, Австралия) (203 км)
Погода в Kalumburu (Западная Австралия, Австралия) (209 км)
Погода в Truscott (Западная Австралия, Австралия) (247 км)
Погода в Troughton Island (Западная Австралия, Австралия) (290 км)
Погода в Manbulloo Csiro (Северная территория, Австралия) (291 км)
Погода в Halls Creek Airport (Западная Австралия, Австралия) (308 км)
Погода в Victoria River Downs (Северная территория, Австралия) (323 км)
Погода в Cape Don Lighthouse (Северная территория, Австралия) (375 км)

Пояснения к столбцам:

Ветер - указаны скорость ветра в м/с - средняя за 10 мин, порывы в срок и между сроками (в фигурных скобках) и направление, откуда дует ветер: С - северный, СВ - северо-восточный, В - восточный, ЮВ - юго-восточный, Ю - южный, ЮЗ - юго-западный, З - западный, СЗ - северо-западный.
Видимость - горизонтальная дальность видимости в метрах или километрах. При видимости от 1 до 10 км при отсутствии осадков обычно наблюдается дымка, при ухудшении видимости до 1 км и менее - туман. В сухую погоду видимость может ухудшаться дымом, пылью или мглою.
Явления - указаны атмосферные явления, наблюдавшиеся в срок или в последний час перед сроком; фигурными скобками обозначены явления, наблюдавшиеся между сроками (за 1-3 часа до срока); квадратными скобками обозначены град или гололедные отложения с указанием их диаметра в мм.
Облачность - указаны через наклонную черту общая и нижняя облачность в баллах и высота нижней границы облаков в метрах; квадратными скобками обозначены формы облаков: Ci - перистые, Cs - перисто-слоистые, Cc - перисто-кучевые, Ac - высококучевые, As - высокослоистые, Sc - слоисто-кучевые, Ns - слоисто-дождевые, Cu - кучевые, Cb - кучево-дождевые. Подробнее классификацию облаков см. в Атласе облаков (PDF).
T - Температура воздуха - температура, измеренная на высоте 2 м над землей.
Td - Температура точки росы - температура, при понижении до которой содержащийся в воздухе водяной пар достигнет насыщения.
f - Относительная влажность воздуха - влажноcть воздуха, измеренная на высоте 2 м над землей.
Te - Эффективная температура - температура, которую ощущает одетый по сезону человек в тени. Характеристика душности погоды. При расчете учитывается влияние влажности воздуха и скорости ветра на теплоощущения человека.
Tes - Эффективная температура на солнце - температура, которую ощущает человек, с поправкой на солнечный нагрев. Характеристика знойности погоды. Зависит от высоты солнца над горизонтом, облачности и скорости ветра. Ночью, в пасмурную погоду, а также при ветре 12 м/с и более поправка равна нулю.
P - Атмосферное давление - приведенное к уровню моря атмосферное давление.
Po - Атмосферное давление - измеренное на уровне метеостанции атмосферное давление.
Tmin - Минимальная температура - минимум температуры воздуха на высоте 2 м над землей.
Tmax - Максимальная температура - максимум температуры воздуха на высоте 2 м над землей.
R - Количество осадков - Количество выпавших осадков за период времени, мм. При наведении курсора мыши на число - период времени, за который выпало указанное количество осадков.
R24 - Количество осадков - Количество выпавших осадков за 24 часа, мм.
S - Снежный покров - Высота снежного покрова, см. При наведении курсора мыши на число - состояние снежного покрова и степень покрытия местности в баллах.